Location: Unspecified
(34.8420°N, 0.0000°E)
Time: 05:10:49
(UTC+00:00)

Vanguard 1 Rocket - Visible Passes

Search period start: 04 April 2026 00:00
Search period end: 14 April 2026 00:00
Orbit: 654 x 4213 km, 34.3° (Epoch: 28 March)

Date Brightness Start Highest point End Pass type
(mag) Time Alt. Az. Time Alt. Az. Time Alt. Az.
4 Apr 9.5 01:20:32 57° ESE 01:20:32 57° ESE 01:28:32 10° E visible
4 Apr 8.6 03:37:39 31° W 03:45:21 88° S 03:53:03 10° E visible
4 Apr 11.3 21:12:31 10° S 21:21:00 21° S 21:21:00 21° S visible
5 Apr 10.4 00:11:31 29° E 00:11:31 29° E 00:16:03 10° E visible
5 Apr 9.0 02:28:37 63° WSW 02:31:44 85° S 02:41:14 10° E visible
5 Apr 8.3 04:46:17 10° W 04:58:53 77° SSW 05:05:18 10° ESE visible
5 Apr 11.3 20:02:25 10° S 20:13:38 17° SE 20:13:38 17° SE visible
5 Apr 11.0 22:23:49 10° SSW 23:02:26 11° E 23:02:52 10° E visible
6 Apr 9.4 01:19:31 69° ESE 01:19:31 69° ESE 01:29:09 10° E visible
6 Apr 8.7 03:36:37 27° W 03:45:51 87° S 03:53:44 10° E visible
6 Apr 11.0 21:10:11 10° SSW 21:23:46 30° S 21:23:46 30° S visible
6 Apr 10.2 23:38:08 10° SW 00:10:22 38° E 00:16:40 10° E visible
7 Apr 9.1 02:27:26 55° W 02:32:07 87° S 02:41:53 10° E visible
7 Apr 8.4 04:46:23 10° W 04:59:18 69° SSW 05:05:53 10° ESE visible
7 Apr 11.0 19:58:43 10° S 20:16:27 24° SE 20:16:51 24° SE visible
7 Apr 10.9 22:22:30 10° SW 23:01:06 18° E 23:03:34 10° E visible
8 Apr 9.4 01:18:10 81° SE 01:18:10 81° SE 01:29:46 10° E visible
8 Apr 8.8 03:35:14 23° W 03:46:18 84° S 03:54:24 10° ESE visible
8 Apr 11.3 18:52:04 10° SSE 19:01:21 13° SE 19:10:14 10° ESE visible
8 Apr 10.7 21:08:23 10° SSW 21:51:43 - ENE 21:27:34 40° SSE visible
8 Apr 10.0 23:37:28 10° WSW 00:08:47 50° E 00:17:15 10° E visible
9 Apr 9.2 02:25:50 46° W 02:32:31 88° S 02:42:34 10° E visible
9 Apr 8.6 04:46:28 10° WNW 04:59:38 60° SSW 05:06:23 10° SE visible
9 Apr 10.8 19:56:06 10° S 20:16:01 30° SE 20:21:19 28° ESE visible
9 Apr 10.6 22:21:30 10° SW 22:59:12 27° E 23:04:09 10° ENE visible
10 Apr 9.5 00:54:19 10° WSW 01:17:56 86° S 01:30:22 10° E visible
10 Apr 8.8 03:33:15 18° W 03:46:42 79° SSW 03:55:00 10° ESE visible
10 Apr 11.2 18:46:42 10° SSE 19:00:56 18° SE 19:15:03 10° E visible
10 Apr 10.4 21:06:59 10° SSW 21:31:07 49° SE 21:50:15 10° ENE visible
10 Apr 9.8 23:37:00 10° WSW 00:06:19 66° ESE 00:17:47 10° E visible
11 Apr 9.2 02:23:17 36° W 02:32:53 87° S 02:43:12 10° E visible
11 Apr 8.8 04:46:33 10° WNW 04:59:50 52° SSW 05:06:46 10° SE visible
11 Apr 10.8 19:54:07 10° SSW 20:15:28 36° SE 20:28:04 24° E visible
11 Apr 10.1 22:20:46 10° SW 22:55:39 43° E 23:04:39 10° ENE visible
12 Apr 9.6 00:54:11 10° W 01:18:13 88° S 01:30:59 10° E visible
12 Apr 8.9 03:29:35 10° W 03:47:01 72° SSW 03:55:34 10° ESE visible
12 Apr 11.1 18:43:27 10° S 19:00:19 24° SE 19:17:32 10° E visible
12 Apr 10.4 21:05:56 10° SW 21:30:41 56° SSE 21:50:47 10° ENE visible
12 Apr 9.9 23:36:42 10° WSW 00:02:43 83° SSE 00:18:18 10° E visible
13 Apr 9.3 02:11:59 10° W 02:33:13 84° S 02:43:49 10° ESE visible
13 Apr 9.0 04:46:39 10° WNW 04:59:53 44° SW 05:07:00 10° SSE visible
13 Apr 10.7 19:52:39 10° SSW 20:14:50 43° SE 20:35:49 10° ENE visible
13 Apr 10.1 22:20:15 10° WSW 22:46:36 75° SSE 23:05:06 10° ENE visible
